Flag for Canada Weather past 2 weeks in Gatineau, Quebec, Canada

Now
52 °F

Clear.


Feels Like: 49 °F
Forecast: 51 / 82 °F
Wind: 7 mph from Northeast

Location: Ottawa Int'L. Ont.

Current Time: May 29, 2015 at 2:52:09 AM

Latest Report: May 29, 2015 at 2:00 AM


Visibility: 15 mi

Pressure: 30.28 "Hg

Humidity: 88%

Dew point: 48 °F

Location of GatineauLocation

Historic Weather in Gatineau — Graph

°F

Gatineau temperature yesterday

Maximum temperature yesterday: 72 °F (at 4:00 PM)
Minimum temperature yesterday: 57 °F (at 11:00 PM)
Average temperature yesterday: 65 °F

Past Weeks' High & Low Weather Summary

 TemperatureHumidityPressure
High84 °F (May 18, 4:00 PM)100% (May 25, 2:00 PM)30.45 "Hg (May 25, 2:00 PM)
Low28 °F (May 23, 5:00 AM)22% (May 14, 3:00 PM)29.67 "Hg (May 19, 4:00 PM)
Average61 °F62%30.04 "Hg
* Reported May 14 1:00 AM — May 29 1:00 AM, Gatineau, Weather by CustomWeather, © 2015

Note: Actual official high and low records may vary slightly from our data, if they occured in-between our weather recording intervals... More about our weather records

Advertising

Gatineau weather history for previous 24 hours

 ConditionsComfort  
Time TempWeatherWind HumidityBarometerVisibility
1:00 AM
Fri, May 29
54 °FClear.5 mph88%30.30 "Hg15 mi
12:00 AM55 °FClear.8 mph88%30.29 "Hg15 mi
11:00 PM
Thu, May 28
57 °FClear.9 mph82%30.29 "Hg15 mi
10:00 PM61 °FClear.6 mph77%30.28 "Hg15 mi
9:00 PM63 °FPassing clouds.5 mph73%30.24 "Hg15 mi
8:00 PM66 °FPassing clouds.9 mph64%30.22 "Hg15 mi
7:00 PM70 °FPassing clouds.13 mph57%30.20 "Hg15 mi
6:00 PM72 °FScattered clouds.15 mph53%30.19 "Hg15 mi
5:00 PM72 °FPartly sunny.14 mph57%30.19 "Hg15 mi
4:00 PM72 °FBroken clouds.17 mph53%30.18 "Hg15 mi
3:00 PM70 °FScattered clouds.20 mph60%30.16 "Hg15 mi
2:00 PM68 °FScattered clouds.18 mph64%30.14 "Hg15 mi
1:00 PM64 °FBroken clouds.16 mph78%30.12 "Hg15 mi
12:46 PM63 °FPartly sunny.17 mph83%30.11 "Hg15 mi
12:00 PM63 °FPartly sunny.16 mph88%30.09 "Hg15 mi
11:00 AM61 °FLight rain. More clouds than sun.13 mph94%30.06 "Hg15 mi
10:00 AM63 °FLight rain. Mostly cloudy.14 mph88%30.03 "Hg15 mi
9:00 AM64 °FMostly cloudy.9 mph88%30.02 "Hg15 mi
8:00 AM64 °FMostly cloudy.7 mph88%30.01 "Hg15 mi
7:00 AM64 °FLight rain. Mostly cloudy.6 mph88%29.99 "Hg15 mi
6:00 AM63 °FPartly cloudy.3 mph88%29.97 "Hg15 mi
5:00 AM64 °FOvercast.6 mph83%29.96 "Hg15 mi
4:00 AM64 °FOvercast.5 mph83%29.94 "Hg15 mi
3:00 AM66 °FPassing clouds.7 mph73%29.93 "Hg15 mi
2:00 AM66 °FPassing clouds.10 mph78%29.93 "Hg15 mi
Weather by CustomWeather, © 2015

See weather overviewHow to use our weather pages